Index of /WartHogPage/LabAnalyst help book/HelpFiles/LAXimages

[ICO]NameLast modifiedSizeDescription

[DIR]Parent Directory   -  
[IMG]LAXlogo.jpg 19-May-2017 07:41 54K 
[IMG]LAXlogo large.jpg 19-May-2017 07:41 77K 
[IMG]plotStyles.png 01-May-2017 12:18 149K 
[IMG]RHcorrection.png 27-Apr-2017 11:01 83K 
[IMG]SaveAs.jpg 22-Apr-2017 07:38 70K 
[IMG]TypeOfFile.jpg 22-Apr-2017 07:19 31K 
[IMG]HumiditySensorType.png 10-Mar-2017 09:58 114K 
[IMG]WaterVaporFlowrateCo..>08-Mar-2017 09:51 42K 
[IMG]AnalyzerRHcomp4.png 08-Mar-2017 09:50 41K 
[IMG]AnalyzerRHcomp2.png 08-Mar-2017 09:32 38K 
[IMG]AnalyzerRHcomp3.png 08-Mar-2017 09:15 38K 
[IMG]AnalyzerRHcomp1.png 08-Mar-2017 09:15 32K 
[IMG]vaporPressureRH.png 08-Mar-2017 08:48 63K 
[IMG]realFlowTemp.png 08-Mar-2017 08:47 83K 
[IMG]realBP.png 08-Mar-2017 08:47 79K 
[IMG]windowselect.jpg 24-Feb-2017 11:18 22K 
[IMG]washoutWindow.jpg 24-Feb-2017 11:18 28K 
[IMG]ventilation.jpg 24-Feb-2017 11:18 63K 
[IMG]transforms.jpg 24-Feb-2017 11:18 62K 
[IMG]toolbarVert.jpg 24-Feb-2017 11:18 39K 
[IMG]toolbarKey.jpg 24-Feb-2017 11:18 181K 
[IMG]timeslope.gif 24-Feb-2017 11:18 27K 
[IMG]suncycle2.jpg 24-Feb-2017 11:18 58K 
[IMG]suncycle1.jpg 24-Feb-2017 11:18 33K 
[IMG]steppedPlot.gif 24-Feb-2017 11:18 34K 
[IMG]smoothing.gif 24-Feb-2017 11:18 25K 
[IMG]showVO2equation.gif 24-Feb-2017 11:18 24K 
[IMG]script icon X.gif 24-Feb-2017 11:18 6.2K 
[IMG]scopeicon.gif 24-Feb-2017 11:18 1.1K 
[IMG]scaninterval.jpg 24-Feb-2017 11:18 30K 
[IMG]regression.gif 24-Feb-2017 11:18 26K 
[IMG]rawbinary.gif 24-Feb-2017 11:18 1.1K 
[IMG]predictRegValues.gif 24-Feb-2017 11:18 19K 
[IMG]polynimialPlot.gif 24-Feb-2017 11:18 8.5K 
[IMG]periodicBaseline.gif 24-Feb-2017 11:18 29K 
[IMG]note.jpg 24-Feb-2017 11:18 19K 
[IMG]newMarker.jpg 24-Feb-2017 11:18 24K 
[IMG]minimumFlowrate.jpg 24-Feb-2017 11:18 47K 
[IMG]manualYscaling.gif 24-Feb-2017 11:18 17K 
[IMG]location.jpg 24-Feb-2017 11:18 20K 
[IMG]large scope icon.gif 24-Feb-2017 11:18 9.8K 
[IMG]juliandate.jpg 24-Feb-2017 11:18 18K 
[IMG]interpolateWarning.gif 24-Feb-2017 11:18 4.0K 
[IMG]interactiveScaling.jpg 24-Feb-2017 11:18 13K 
[IMG]integration.jpg 24-Feb-2017 11:18 21K 
[IMG]instantaneous2.jpg 24-Feb-2017 11:18 22K 
[IMG]instantaneous1.jpg 24-Feb-2017 11:18 22K 
[IMG]humidityCompensation..>24-Feb-2017 11:18 37K 
[IMG]histogram.gif 24-Feb-2017 11:18 33K 
[IMG]frequencyDistrib.gif 24-Feb-2017 11:18 7.6K 
[IMG]easternwhipbird002b.jpg24-Feb-2017 11:18 26K 
[IMG]datafilter.jpg 24-Feb-2017 11:18 20K 
[IMG]dataScreenArrows.jpg 24-Feb-2017 11:18 110K 
[IMG]convection.jpg 24-Feb-2017 11:18 31K 
[IMG]compact.gif 24-Feb-2017 11:18 48K 
[IMG]closedSystem.jpg 24-Feb-2017 11:18 49K 
[IMG]channelvalues.gif 24-Feb-2017 11:18 9.0K 
[IMG]breakpoint.jpg 24-Feb-2017 11:18 41K 
[IMG]breakpoint.gif 24-Feb-2017 11:18 51K 
[IMG]blockinfo.gif 24-Feb-2017 11:18 117K 
[IMG]blockexample.jpg 24-Feb-2017 11:18 68K 
[IMG]block.gif 24-Feb-2017 11:18 7.9K 
[IMG]bigHistogram.jpg 24-Feb-2017 11:18 45K 
[IMG]asymptoteResiduals.jpg 24-Feb-2017 11:18 41K 
[IMG]arrangechans.gif 24-Feb-2017 11:18 18K 
[IMG]apple.gif 24-Feb-2017 11:18 6.8K 
[IMG]allvalues.gif 24-Feb-2017 11:18 1.7K 
[IMG]WorldMapImage.jpg 24-Feb-2017 11:18 51K 
[IMG]WhichVariablesToSave..>24-Feb-2017 11:18 50K 
[IMG]WaveWindow.gif 24-Feb-2017 11:18 20K 
[IMG]WaveTriggers.gif 24-Feb-2017 11:18 15K 
[IMG]WaveShape.gif 24-Feb-2017 11:18 22K 
[IMG]WaveResults.gif 24-Feb-2017 11:18 24K 
[IMG]WaveHistograms.gif 24-Feb-2017 11:18 24K 
[IMG]WaterVO2B.gif 24-Feb-2017 11:18 33K 
[IMG]WaterVO2A.gif 24-Feb-2017 11:18 17K 
[IMG]WarthogTEXT2.gif 24-Feb-2017 11:18 6.4K 
[IMG]WarthogTEXT.gif 24-Feb-2017 11:18 9.1K 
[IMG]WWcredits.jpg 24-Feb-2017 11:18 78K 
[IMG]WHtexticon.gif 24-Feb-2017 11:18 1.1K 
[IMG]VapCont large.jpg 24-Feb-2017 11:18 49K 
[IMG]VapCont.jpg 24-Feb-2017 11:18 35K 
[IMG]VO2units.gif 24-Feb-2017 11:18 11K 
[IMG]VO2Masks.jpg 24-Feb-2017 11:18 50K 
[IMG]VO2FinalWindow.gif 24-Feb-2017 11:18 18K 
[IMG]VCO2comp.gif 24-Feb-2017 11:18 23K 
[IMG]UnitConversions.jpg 24-Feb-2017 11:18 49K 
[IMG]TregWindow.jpg 24-Feb-2017 11:18 69K 
[IMG]TregRejectionCriteri..>24-Feb-2017 11:18 38K 
[IMG]TregOptions.jpg 24-Feb-2017 11:18 70K 
[IMG]TregMaxInterval.jpg 24-Feb-2017 11:18 25K 
[IMG]TregCostFlowchart.jpg 24-Feb-2017 11:18 71K 
[IMG]TregCSVfile.jpg 24-Feb-2017 11:18 57K 
[IMG]TransformMenu.gif 24-Feb-2017 11:18 19K 
[IMG]TimeSlopeUnits.gif 24-Feb-2017 11:18 9.6K 
[IMG]TimeSeries.gif 24-Feb-2017 11:18 32K 
[IMG]TimeIntegration.gif 24-Feb-2017 11:18 30K 
[IMG]TimeAveraging.jpg 24-Feb-2017 11:18 42K 
[IMG]TeFlowchart.jpg 24-Feb-2017 11:18 36K 
[IMG]TabFileOptions.jpg 24-Feb-2017 11:18 35K 
[IMG]TImeScaleAdjust.jpg 24-Feb-2017 11:18 52K 
[IMG]SunCycle.jpg 24-Feb-2017 11:18 65K 
[IMG]SteppedSample.gif 24-Feb-2017 11:18 39K 
[IMG]StepTest.jpg 24-Feb-2017 11:18 86K 
[IMG]StepTest.gif 24-Feb-2017 11:18 17K 
[IMG]SimpleRegression.jpg 24-Feb-2017 11:18 61K 
[IMG]SimpleMath.jpg 24-Feb-2017 11:18 56K 
[IMG]SetBlock.jpg 24-Feb-2017 11:18 15K 
[IMG]SensorHumidity1.png 24-Feb-2017 11:18 113K 
[IMG]SelectiveInt.gif 24-Feb-2017 11:18 23K 
[IMG]ScriptSequence.jpg 24-Feb-2017 11:18 51K 
[IMG]Script.jpg 24-Feb-2017 11:18 40K 
[IMG]Script.gif 24-Feb-2017 11:18 18K 
[IMG]Screen Shot fft.jpg 24-Feb-2017 11:18 35K 
[IMG]ScalingMode.gif 24-Feb-2017 11:18 15K 
[IMG]ScalingFactors.gif 24-Feb-2017 11:18 29K 
[IMG]ScaleToBlock.gif 24-Feb-2017 11:18 18K 
[IMG]Sable icon.jpg 24-Feb-2017 11:18 34K 
[IMG]STPconverter.gif 24-Feb-2017 11:18 28K 
[IMG]SSCFicon.gif 24-Feb-2017 11:18 305  
[IMG]RunAverage.gif 24-Feb-2017 11:18 16K 
[IMG]RemoveSpikes.jpg 24-Feb-2017 11:18 39K 
[IMG]RemoveSpikeB.gif 24-Feb-2017 11:18 27K 
[IMG]RemoveRefs.gif 24-Feb-2017 11:18 31K 
[IMG]RegressionType.gif 24-Feb-2017 11:18 9.4K 
[IMG]RegressionChans.gif 24-Feb-2017 11:18 19K 
[IMG]RegPrediction.gif 24-Feb-2017 11:18 19K 
[IMG]ReArrange.jpg 24-Feb-2017 11:18 72K 
[IMG]RawBinaryFileIcon.jpg 24-Feb-2017 11:18 13K 
[IMG]RHsensorTemp.gif 24-Feb-2017 11:18 22K 
[IMG]Q10window.jpg 24-Feb-2017 11:18 47K 
[IMG]PrintFileImage.gif 24-Feb-2017 11:18 27K 
[IMG]PrefsOperations.jpg 24-Feb-2017 11:18 62K 
[IMG]PrefsFonts.jpg 24-Feb-2017 11:18 63K 
[IMG]PrefsFiles.jpg 24-Feb-2017 11:18 56K 
[IMG]PrefsAppearance.jpg 24-Feb-2017 11:18 63K 
[IMG]Polynomial1.gif 24-Feb-2017 11:18 33K 
[IMG]PlotHite.gif 24-Feb-2017 11:18 50K 
[IMG]PeriodTest.gif 24-Feb-2017 11:18 28K 
[IMG]PairDiff.gif 24-Feb-2017 11:18 36K 
[IMG]PO2calc.jpg 24-Feb-2017 11:18 36K 
[IMG]Overlay2.gif 24-Feb-2017 11:18 14K 
[IMG]Overlay1.gif 24-Feb-2017 11:18 15K 
[IMG]OS9WarthogIcon.jpg 24-Feb-2017 11:18 7.2K 
[IMG]O2configurations.jpg 24-Feb-2017 11:18 51K 
[IMG]O2channels.gif 24-Feb-2017 11:18 29K 
[IMG]O2StartWindow.jpg 24-Feb-2017 11:18 43K 
[IMG]O2StartWindow.gif 24-Feb-2017 11:18 25K 
[IMG]O2HeatEquiv.gif 24-Feb-2017 11:18 14K 
[IMG]MultipleResults.gif 24-Feb-2017 11:18 18K 
[IMG]MultipleChannelContr..>24-Feb-2017 11:18 18K 
[IMG]Multichannel1.gif 24-Feb-2017 11:18 15K 
[IMG]MultiChan.gif 24-Feb-2017 11:18 124K 
[IMG]Mode1configuration.jpg 24-Feb-2017 11:18 22K 
[IMG]MetabolicAllometry.jpg 24-Feb-2017 11:18 34K 
[IMG]MetabolicAllometry.gif 24-Feb-2017 11:18 22K 
[IMG]MaximumResults.gif 24-Feb-2017 11:18 34K 
[IMG]ManualScaling.gif 24-Feb-2017 11:18 4.5K 
[IMG]Lag.gif 24-Feb-2017 11:18 13K 
[IMG]LA file icon.gif 24-Feb-2017 11:18 8.9K 
[IMG]LAalerts.jpg 24-Feb-2017 11:18 33K 
[IMG]LA X preferences.gif 24-Feb-2017 11:18 7.7K 
[IMG]LAXnewlogo.jpg 24-Feb-2017 11:18 36K 
[IMG]LAFileIcon.gif 24-Feb-2017 11:18 341  
[IMG]IntegrateOverTime.gif 24-Feb-2017 11:18 26K 
[IMG]IntResults.gif 24-Feb-2017 11:18 27K 
[IMG]IntRemoveSpikes.gif 24-Feb-2017 11:18 21K 
[IMG]IntPlot.gif 24-Feb-2017 11:18 15K 
[IMG]HumidityCorrectionH2..>24-Feb-2017 11:18 37K 
[IMG]H_Menu.gif 24-Feb-2017 11:18 407  
[IMG]FlowCompH2OWindow.gif 24-Feb-2017 11:18 19K 
[IMG]FileMerge.jpg 24-Feb-2017 11:18 51K 
[IMG]FileInfo.gif 24-Feb-2017 11:18 51K 
[IMG]FileAppendWindow.jpg 24-Feb-2017 11:18 120K 
[IMG]FFTstart.gif 24-Feb-2017 11:18 18K 
[IMG]FFTresults.jpg 24-Feb-2017 11:18 59K 
[IMG]FFTfirst.gif 24-Feb-2017 11:18 25K 
[IMG]FB3logo.jpg 24-Feb-2017 11:18 24K 
[IMG]ExpressionTransform.jpg24-Feb-2017 11:18 42K 
[IMG]ExpressionEval.jpg 24-Feb-2017 11:18 33K 
[IMG]EventCount.jpg 24-Feb-2017 11:18 80K 
[IMG]EvapTemp.gif 24-Feb-2017 11:18 27K 
[IMG]EffVol.gif 24-Feb-2017 11:18 18K 
[IMG]EfVol1.gif 24-Feb-2017 11:18 17K 
[IMG]EditWindow.gif 24-Feb-2017 11:18 30K 
[IMG]DissolvedOxygen.jpg 24-Feb-2017 11:18 32K 
[IMG]DayofYear.jpg 24-Feb-2017 11:18 17K 
[IMG]DataLossWarning.gif 24-Feb-2017 11:18 17K 
[IMG]CutBlock.gif 24-Feb-2017 11:18 17K 
[IMG]CustomTransforms.jpg 24-Feb-2017 11:18 36K 
[IMG]CrossChannelSubset.jpg 24-Feb-2017 11:18 37K 
[IMG]ConvertMenu.gif 24-Feb-2017 11:18 23K 
[IMG]ConditionalSav.gif 24-Feb-2017 11:18 36K 
[IMG]ChannelForRHcorrecti..>24-Feb-2017 11:18 36K 
[IMG]CVRsetup.gif 24-Feb-2017 11:18 21K 
[IMG]CVRresults.gif 24-Feb-2017 11:18 28K 
[IMG]Blockwidth.gif 24-Feb-2017 11:18 17K 
[IMG]BasicStats.gif 24-Feb-2017 11:18 36K 
[IMG]Baseline.gif 24-Feb-2017 11:18 25K 
[IMG]AutoLag4.jpg 24-Feb-2017 11:18 29K 
[IMG]AutoLag3.jpg 24-Feb-2017 11:18 25K 
[IMG]AutoLag2.jpg 24-Feb-2017 11:18 25K 
[IMG]AutoLag1.jpg 24-Feb-2017 11:18 29K 
[IMG]AustraliaMapImage.jpg 24-Feb-2017 11:18 44K 
[IMG]AsymptotePlot.gif 24-Feb-2017 11:18 18K 
[IMG]Asymptote2.gif 24-Feb-2017 11:18 23K 
[IMG]AltitudeSimulation.jpg 24-Feb-2017 11:18 54K 
[IMG]Altitude&Pressure.gif 24-Feb-2017 11:18 23K 
[IMG]AboutLAX.jpg 24-Feb-2017 11:18 46K 
[IMG]ASCIIload.gif 24-Feb-2017 11:18 70K 

Apache/2.2.27 (Unix) mod_ssl/2.2.27 OpenSSL/0.9.8za DAV/2 Server at warthog.ucr.edu Port 80